880  
ASUS44 KMEG 171910  
RWRMEG  
MEMPHIS CWA HOURLY WEATHER ROUNDUP  
NATIONAL WEATHER SERVICE MEMPHIS TN  
200 PM CDT TUE SEP 17 2019  
   
..WEST TENNESSEE
 
 
 
CITY SKY/WX TMP DP RH WIND PRES REMARKS
 
MEMPHIS INTL PTSUNNY 98 62 30 W5 30.03F HX 99  
NWS MEMPHIS N/A 96 N/A N/A MISG N/A  
JACKSON FAIR 96 67 38 VRB3 30.03F HX 100  
SOMERVILLE SUNNY 95 63 34 VRB6G13 30.01F HX 96  
BOLIVAR SUNNY 93 64 38 VRB5 30.02F HX 95  
LEXINGTON MOSUNNY 93 70 46 VRB5 30.01F HX 99  
SELMER MOSUNNY 90 70 51 CALM 30.02F HX 95  
DYERSBURG FAIR 97 65 34 N5 30.03F HX 99  
UNION CITY MOSUNNY 93 70 46 N7 30.00F HX 99  
PARIS MOSUNNY 93 68 43 VRB3 30.03F HX 97  
HUNTINGDON SUNNY 93 68 43 VRB3G12 30.02F HX 97  
 
   
..EASTERN ARKANSAS
 
 
 
CITY SKY/WX TMP DP RH WIND PRES REMARKS
 
JONESBORO FAIR 97 61 30 VRB6 30.02F HX 97  
WEST MEMPHIS FAIR 101 63 28 CALM 30.01F HX 103  
BATESVILLE MOSUNNY 95 65 37 E8 30.04F HX 97  
NEWPORT FAIR 95 67 39 VRB3 30.03F HX 99  
WALNUT RIDGE FAIR 95 67 39 VRB3 30.03F HX 99  
BLYTHEVILLE FAIR 97 65 34 N5 30.02F HX 99  
NW BLYTHEVILLE PTSUNNY 99 64 32 NW8 30.02F HX 101  
SEARCY FAIR 97 68 38 VRB6 30.03F HX 102  
STUTTGART FAIR 96 67 38 E6 30.02F HX 100  
PINE BLUFF FAIR 95 61 32 MISG 30.01F HX 95  
MONTICELLO FAIR 97 64 33 VRB7 30.01F HX 99  
 
   
..NORTH MISSISSIPPI
 
 
 
CITY SKY/WX TMP DP RH WIND PRES REMARKS
 
TUPELO FAIR 96 62 32 VRB5 30.01F HX 97  
OXFORD FAIR 97 61 30 CALM 30.04F HX 97  
BATESVILLE FAIR 97 64 34 N7 30.01F HX 99  
OLIVE BRANCH MOSUNNY 95 63 34 NW8 30.02F HX 96  
TUNICA N/A 95 64 36 SE3 30.03F HX 97  
CLARKSDALE N/A 99 66 34 E3 30.02F HX 102  
CORINTH FAIR 95 63 34 VRB5 30.02F HX 96  
GREENWOOD FAIR 100 66 32 N5 30.01 HX 104  
COLUMBUS FAIR 98 65 33 CALM 30.00F HX 100  
STARKVILLE FAIR 95 64 36 N5 30.02F HX 97  
GOLDEN TRIANGL FAIR 98 67 36 NW7 30.01F HX 102  
 
   
..SOUTHEAST MISSOURI
 
 
 
CITY SKY/WX TMP DP RH WIND PRES REMARKS
 
KENNETT N/A 97 64 34 VRB6 30.01F HX 99  
MALDEN FAIR 95 66 38 NW6 30.04F HX 98  
WEST PLAINS SUNNY 91 63 39 SE6 30.09F HX 92  
POPLAR BLUFF FAIR 94 67 41 VRB3 30.02F HX 97  
CAPE GIRARDEAU FAIR 93 70 46 CALM 30.02F HX 99  
 
   
..NORTHWEST ALABAMA
 
 
 
CITY SKY/WX TMP DP RH WIND PRES REMARKS
 
MUSCLE SHOALS FAIR 98 66 34 VRB6 30.01F HX 101  
 
   
..MIDDLE TENNESSEE
 
 
 
CITY SKY/WX TMP DP RH WIND PRES REMARKS
 
NASHVILLE FAIR 95 64 35 NE6 30.02F HX 97  
CLARKSVILLE FAIR 94 65 38 NE8 30.03F HX 96  
DICKSON PTCLDY 91 64 40 N12 30.03F HX 93  
COLUMBIA MOSUNNY 95 63 34 VRB7 30.00F HX 96  
LAWRENCEBURG CLEAR 93 66 40 W7 30.02F HX 96  
LEWISBURG PTCLDY 95 64 36 VRB6G13 30.00F HX 97  
 
   
..WESTERN KENTUCKY
 
 
 
CITY SKY/WX TMP DP RH WIND PRES REMARKS
 
PADUCAH FAIR 94 70 45 N3 30.03F HX 100  
FORT CAMPBELL FAIR 92 61 35 N8 30.02F HX 92  
 
   
..CENTRAL ARKANSAS
 
 
 
CITY SKY/WX TMP DP RH WIND PRES REMARKS
 
LITTLE ROCK MOSUNNY 95 68 41 VRB6 30.02F HX 99  
 
SKY/WX REPORTED AS FAIR MEANS FEW OR NO CLOUDS BELOW  
12 THOUSAND FEET.  
 
 
 
CLICK HERE TO GO TO PREVIOUS BULLETINS.

The Nexlab TN Page
The Nexlab MS Page
The Nexlab AR Page Main Text Page